SOLRAD 11A/B AKM, 8753

Orbit data source: Space-Track

SOLRAD 11A/B AKM, 8753 is space debris originally from a launch on Mon, 15 Mar 1976 UTC launched from the Air Force Eastern Test Range (AFETR). Debris objects in space refer to the collection of defunct objects orbiting the Earth. Examples of debris include non-operational satellites, rocket bodies, and fragments generated from explosions, collisions, or faulty payload assembly.

Loading next visibility...
Identifier
8753, 1976-023H
Orbit
Active
Last TLE update
1 day ago
Origin
Manufacturer
Thiokol/TE
Mission
Spacecraft
Bus & Motor
STAR 13A, Unknown motor
Mass
10 kg wet, 10 kg dry
Launch date (UTC)
1976-03-15 (49 years ago)
Launch vehicle
Unknown
Launch site
Air Force Eastern Test Range (AFETR)
Object type
Payload
Rocket body
Debris
Shape & HBR
Unknown
Radar Cross Section
RCS unknown

Expand to show TLE details & history

TLE from 1 day ago
0 SOLRAD 11A/B AKM
1 08753U 76023H   25128.34109961 -.00001016  00000-0  00000-0 0  9991
2 08753  13.3158 336.1248 0315865 100.5137 357.3541  0.18713281  4652
Epoch: 2025-05-08T08:11Z
Definitive object data (Epoch: 2025-05-08T08:11:11.006Z)
Latitude
13.16603°
Longitude
85.01244°
Altitude
118,623.411 km
Speed
1.814 km/s
True Right ascension
04h 56m 53s
True Declination
13° 09' 42"
Sunlit
Object was in daylight at TLE epoch
Visualization TLE readout
Latitude
-1.47289°
Longitude
172.86467°
Altitude
122,399.813 km
Speed
1.762 km/s
Apparent Right ascension
10h 47m 36s
Apparent Declination
-3° 09' 41"
Sunlit
Object is in daylight
Visualization observer readout
Local Sidereal Time
22:29:31
Azimuth
352.48° N
Elevation
-53.017°
Doppler factor
1
Orbital elements
Apogee altitude
126,813.06 km
Perigee altitude
118,656.607 km
Semi-major axis
129,112.97 km
Eccentricity
0.0315865
Inclination
13.3158°
RAAN
336.1248°
Arg. of periapsis
100.5137°
True anomaly
357.18016°
Mean anomaly
357.3541°
Eccentric anomaly
357.26783°
Mean motion
0.04678 °/min
BSTAR
Unknown
Orbital period
7695.1 mins
Loading maneuver chart data...
Loading SW <> Apogee altitude chart data...
Loading historical data...
Loading historical data...
Loading historical data...
Loading historical data...
Loading historical data...
Loading historical data...
Loading historical data...

SOLRAD 11A/B AKM Visibility forecast

Observer location: undefined°, undefined°

Span
Click to sort rows by Start time (UTC) header in descending order
Start Az.
Max El. time (UTC)
Max El. Az.
Max El.
End time (UTC)
End Az.
624 mins2025-05-09 23:55:23.204Z111.098° ESE2025-05-10 05:09:23.204Z177.592° S31.701°2025-05-10 10:19:23.204Z242.441° WSW
|